Weather History for Buffalo, NY

Change the Weather History Date:

Thursday, September 26, 2013

  Actual Average Record
Temperature  
Mean Temperature 58 °F 58 °F  
Max Temperature 71 °F 67 °F 87 °F (1959)
Min Temperature 45 °F 50 °F 35 °F (1928)
Degree Days  
Heating Degree Days 7 7  
Month to date heating degree days 143 102  
Since 1 July heating degree days 159 129  
Cooling Degree Days 0 1  
Month to date cooling degree days 49 51  
Year to date cooling degree days 601 538  
Growing Degree Days 8 (Base 50)    
Moisture  
Dew Point 47 °F    
Average Humidity 67    
Maximum Humidity 86    
Minimum Humidity 48    
Precipitation  
Precipitation 0.00 in 0.14 in 1.94 in (1977)
Month to date precipitation 3.53 3.34  
Year to date precipitation 31.16 28.50  
Snow  
Snow 0.00 in 0.00 in 0.00 in ()
Month to date snowfall 0.0 0.0  
Since 1 July snowfall 0.0 0.0  
Since 1 September snowfall 0.0 0.0  
Snow Depth 0.00 in    
Sea Level Pressure  
Sea Level Pressure 30.09 in    
Wind  
Wind Speed 4 mph (ENE)    
Max Wind Speed 12 mph    
Max Gust Speed 15 mph    
Visibility 10 miles    
Events      
T = Trace of Precipitation, MM = Missing Value Source: NWS Daily Summary

Daily Weather History Graph

Daily Weather History Graph

Search for Another Location

Airport:

Trip Planner

Search our weather history database for the weather conditions in past years. The results will help you decide how hot, cold, wet, or windy it might be!

Date:

Astronomy

Sep. 26, 2013 Rise Set
Actual Time 7:06 AM EDT 7:04 PM EDT
Civil Twilight 6:38 AM EDT 7:32 PM EDT
Nautical Twilight 6:05 AM EDT 8:05 PM EDT
Astronomical Twilight 5:31 AM EDT 8:39 PM EDT
Moon 11:54 PM EDT (9/26) 2:05 PM EDT (9/26)
Length of Visible Light 12h 54m
Length of Day
11h 57m
Waning Gibbous, 55% of the Moon is Illuminated
Sep 26
Waning Gibbous
Sep 26
Last Quarter
Oct 4
New
Oct 11
First Quarter
Oct 18
Full

Hourly Weather History & Observations

Time (EDT) Temp. Windchill Dew Point Humidity Pressure Visibility Wind Dir Wind Speed Gust Speed Precip Events Conditions
12:54 AM 52.0 °F - 46.0 °F 80% 30.01 in 10.0 mi ESE 3.5 mph - N/A   Mostly Cloudy
1:54 AM 51.1 °F - 46.0 °F 83% 30.02 in 10.0 mi SE 3.5 mph - N/A   Mostly Cloudy
2:54 AM 50.0 °F - 45.0 °F 83% 30.02 in 10.0 mi ESE 4.6 mph - N/A   Scattered Clouds
3:54 AM 48.9 °F - 43.0 °F 80% 30.02 in 10.0 mi SE 3.5 mph - N/A   Scattered Clouds
4:54 AM 46.9 °F - 42.1 °F 83% 30.03 in 10.0 mi SSE 3.5 mph - N/A   Clear
5:54 AM 46.0 °F 44.8 °F 42.1 °F 86% 30.04 in 10.0 mi ESE 3.5 mph - N/A   Partly Cloudy
6:54 AM 46.0 °F - 41.0 °F 83% 30.06 in 10.0 mi Calm Calm - N/A   Partly Cloudy
7:54 AM 46.9 °F - 42.1 °F 83% 30.07 in 10.0 mi SSE 3.5 mph - N/A   Mostly Cloudy
8:54 AM 51.1 °F - 43.0 °F 74% 30.09 in 10.0 mi Calm Calm - N/A   Scattered Clouds
9:54 AM 59.0 °F - 46.0 °F 62% 30.10 in 10.0 mi Calm Calm - N/A   Scattered Clouds
10:54 AM 64.9 °F - 44.1 °F 47% 30.10 in 10.0 mi NNE 5.8 mph - N/A   Scattered Clouds
11:54 AM 66.9 °F - 46.0 °F 47% 30.10 in 10.0 mi North 5.8 mph - N/A   Scattered Clouds
12:54 PM 68.0 °F - 48.0 °F 49% 30.10 in 10.0 mi ENE 10.4 mph - N/A   Scattered Clouds
1:54 PM 68.0 °F - 50.0 °F 52% 30.09 in 10.0 mi NNE 9.2 mph - N/A   Scattered Clouds
2:54 PM 68.0 °F - 51.1 °F 55% 30.09 in 10.0 mi ENE 6.9 mph - N/A   Mostly Cloudy
3:54 PM 68.0 °F - 52.0 °F 56% 30.09 in 10.0 mi NNE 5.8 mph - N/A   Mostly Cloudy
4:54 PM 69.1 °F - 52.0 °F 54% 30.10 in 10.0 mi North 5.8 mph - N/A   Mostly Cloudy
5:54 PM 68.0 °F - 51.1 °F 55% 30.11 in 10.0 mi NE 8.1 mph - N/A   Partly Cloudy
6:54 PM 64.9 °F - 51.1 °F 61% 30.12 in 10.0 mi NNE 5.8 mph - N/A   Partly Cloudy
7:54 PM 62.1 °F - 51.1 °F 67% 30.13 in 10.0 mi NE 3.5 mph - N/A   Partly Cloudy
8:54 PM 60.1 °F - 51.1 °F 72% 30.14 in 10.0 mi ENE 3.5 mph - N/A   Partly Cloudy
9:54 PM 57.9 °F - 51.1 °F 78% 30.14 in 10.0 mi Calm Calm - N/A   Clear
10:54 PM 55.9 °F - 51.1 °F 84% 30.15 in 10.0 mi ESE 4.6 mph - N/A   Clear
11:54 PM 55.0 °F - 51.1 °F 86% 30.16 in 10.0 mi ESE 3.5 mph - N/A   Clear